Flag for U.S.A. Weather past 2 weeks in Freehold, New Jersey, U.S.A.

Now
88 °F

Passing clouds.


Feels Like: 88 °F
Forecast: 68 / 89 °F
Wind: 8 mph from West

Location: Belmar-Farmdale

Current Time: Aug 3, 2015 at 2:15:23 PM

Latest Report: Aug 3, 2015 at 1:35 PM


Visibility: 10 mi

Pressure: 29.83 "Hg

Humidity: 43%

Dew point: 63 °F

Location of FreeholdLocation

Historic Weather in Freehold — Graph

°F

Freehold temperature yesterday

Maximum temperature yesterday: 86 °F (at 11:55 AM)
Minimum temperature yesterday: 64 °F (at 4:55 AM)
Average temperature yesterday: 76 °F

Past Weeks' High & Low Weather Summary

 TemperatureHumidityPressure
High93 °F (Jul 20, 2:15 PM)89% (Jul 30, 11:15 PM)30.05 "Hg (Jul 30, 11:15 PM)
Low61 °F (Jul 25, 5:35 AM)31% (Jul 31, 4:15 PM)29.61 "Hg (Jul 21, 6:15 PM)
Average78 °F61%29.89 "Hg
* Reported Jul 19 1:15 PM — Aug 3 1:15 PM, Freehold, Weather by CustomWeather, © 2015

Note: Actual official high and low records may vary slightly from our data, if they occured in-between our weather recording intervals... More about our weather records

Advertising

Freehold weather history for previous 24 hours

 ConditionsComfort  
Time TempWeatherWind HumidityBarometerVisibility
1:15 PM
Mon, Aug 3
90 °FPassing clouds.10 mph41%29.83 "Hg10 mi
12:55 PM88 °FSunny.8 mph40%29.84 "Hg10 mi
12:35 PM88 °FPassing clouds.12 mph43%29.84 "Hg10 mi
12:15 PM88 °FSunny.12 mph40%29.86 "Hg10 mi
11:55 AM88 °FSunny.14 mph40%29.86 "Hg10 mi
11:35 AM86 °FSunny.14 mph43%29.86 "Hg10 mi
11:15 AM86 °FSunny.9 mph43%29.87 "Hg10 mi
10:55 AM84 °FSunny.13 mph45%29.87 "Hg10 mi
10:35 AM84 °FSunny.13 mph45%29.88 "Hg10 mi
10:15 AM82 °FSunny.10 mph48%29.87 "Hg10 mi
9:55 AM82 °FSunny.9 mph51%29.87 "Hg10 mi
9:35 AM81 °FSunny.8 mph54%29.87 "Hg10 mi
9:15 AM81 °FSunny.6 mph54%29.87 "Hg10 mi
8:55 AM79 °FSunny.6 mph58%29.87 "Hg10 mi
8:35 AM75 °FSunny.8 mph65%29.88 "Hg10 mi
8:15 AM73 °FSunny.6 mph69%29.88 "Hg10 mi
7:55 AM73 °FSunny.7 mph69%29.88 "Hg10 mi
7:35 AM72 °FSunny.8 mph73%29.88 "Hg10 mi
7:15 AM70 °FSunny.6 mph73%29.87 "Hg10 mi
6:55 AM68 °FClear.5 mph78%29.87 "Hg10 mi
6:35 AM68 °FClear.5 mph78%29.87 "Hg10 mi
6:15 AM68 °FClear.6 mph78%29.87 "Hg10 mi
5:35 AM68 °FClear.No wind73%29.87 "Hg10 mi
5:15 AM68 °FClear.3 mph78%29.87 "Hg10 mi
4:55 AM68 °FClear.3 mph73%29.86 "Hg10 mi
4:35 AM70 °FClear.3 mph73%29.86 "Hg10 mi
4:15 AM70 °FClear.5 mph69%29.87 "Hg10 mi
3:55 AM70 °FClear.6 mph73%29.86 "Hg10 mi
3:35 AM70 °FClear.7 mph69%29.86 "Hg10 mi
3:15 AM70 °FClear.8 mph69%29.87 "Hg10 mi
2:55 AM70 °FClear.5 mph64%29.87 "Hg10 mi
2:35 AM70 °FClear.6 mph64%29.87 "Hg10 mi
2:15 AM70 °FClear.5 mph64%29.87 "Hg10 mi
1:55 AM70 °FClear.5 mph64%29.88 "Hg10 mi
1:35 AM70 °FClear.3 mph64%29.89 "Hg10 mi
1:15 AM72 °FClear.5 mph61%29.90 "Hg10 mi
12:55 AM72 °FClear.6 mph65%29.90 "Hg10 mi
12:15 AM73 °FClear.5 mph61%29.89 "Hg10 mi
11:55 PM
Sun, Aug 2
73 °FClear.7 mph65%29.89 "Hg10 mi
11:35 PM73 °FClear.6 mph65%29.89 "Hg10 mi
11:15 PM72 °FClear.7 mph69%29.89 "Hg10 mi
10:55 PM73 °FClear.5 mph65%29.89 "Hg10 mi
10:35 PM73 °FClear.7 mph61%29.89 "Hg10 mi
10:15 PM75 °FClear.6 mph57%29.90 "Hg10 mi
9:55 PM75 °FClear.5 mph61%29.90 "Hg10 mi
9:35 PM75 °FClear.5 mph61%29.91 "Hg10 mi
9:15 PM77 °FClear.5 mph57%29.91 "Hg10 mi
8:55 PM79 °FSunny.5 mph54%29.90 "Hg10 mi
8:35 PM79 °FSunny.5 mph58%29.89 "Hg10 mi
8:15 PM79 °FSunny.5 mph61%29.89 "Hg10 mi
7:55 PM81 °FSunny.3 mph58%29.89 "Hg10 mi
7:35 PM81 °FSunny.No wind58%29.89 "Hg10 mi
7:15 PM81 °FSunny.5 mph58%29.88 "Hg10 mi
6:55 PM81 °FSunny.5 mph58%29.89 "Hg10 mi
6:15 PM82 °FPassing clouds.7 mph51%29.90 "Hg10 mi
5:55 PM82 °FSunny.6 mph51%29.90 "Hg10 mi
5:35 PM82 °FSunny.8 mph51%29.90 "Hg10 mi
4:55 PM84 °FSunny.10 mph45%29.91 "Hg10 mi
4:35 PM84 °FSunny.6 mph45%29.91 "Hg10 mi
4:15 PM84 °FPassing clouds.7 mph45%29.90 "Hg10 mi
3:55 PM84 °FPassing clouds.7 mph45%29.91 "Hg10 mi
3:35 PM84 °FSunny.8 mph45%29.91 "Hg10 mi
3:15 PM84 °FPassing clouds.9 mph45%29.91 "Hg10 mi
2:55 PM84 °FScattered clouds.9 mph43%29.91 "Hg10 mi
2:35 PM84 °FScattered clouds.9 mph45%29.91 "Hg10 mi
2:15 PM84 °FScattered clouds.10 mph45%29.91 "Hg10 mi
Weather by CustomWeather, © 2015

See weather overviewHow to use our weather pages